When you browse on this site, cookies collect data to enhance your experience and personalize the content and advertising you see.
Visit our Privacy Policy to learn more. By continuing to use the site, you agree to this use of cookies and data.
  • In United Kingdom
  • List of Countries
  • For 7 days
  • Water Temperature
  • Satellite Maps
  • Weather Map
  • Weather Widgets
  • user-avatar
    Login

    Hourly Weather Minsk

    Today, 19 July, Friday

    Time Temperature Precipitation Wind Pressure Humidity
    00:00 +13°C° 0 mm 4 mps 738 mmHg 90%
    01:00 +12°C° 0 mm 4 mps 738 mmHg 91%
    02:00 +12°C° 0 mm 4 mps 739 mmHg 92%
    03:00 +12°C° 0 mm 4 mps 739 mmHg 92%
    04:00 +11°C° 0 mm 4 mps 739 mmHg 92%
    05:00 +11°C° 0 mm 4 mps 739 mmHg 93%
    06:00 +13°C° 0 mm 4 mps 739 mmHg 89%
    07:00 +14°C° 0 mm 4 mps 740 mmHg 85%
    08:00 +16°C° 0 mm 5 mps 740 mmHg 81%
    09:00 +17°C° 0 mm 5 mps 740 mmHg 75%
    10:00 +20°C° 0 mm 5 mps 740 mmHg 69%
    11:00 +21°C° 0 mm 5 mps 740 mmHg 63%
    12:00 +22°C° 0 mm 5 mps 740 mmHg 61%
    13:00 +22°C° 0 mm 5 mps 740 mmHg 58%
    14:00 +22°C° 0 mm 5 mps 740 mmHg 56%
    15:00 +22°C° 0 mm 5 mps 740 mmHg 58%
    16:00 +22°C° 0 mm 4 mps 740 mmHg 59%
    17:00 +22°C° 0 mm 4 mps 740 mmHg 61%
    18:00 +20°C° 0 mm 4 mps 740 mmHg 66%
    19:00 +19°C° 0 mm 3 mps 740 mmHg 70%
    20:00 +17°C° 0 mm 3 mps 741 mmHg 75%
    21:00 +16°C° 0 mm 3 mps 741 mmHg 77%
    22:00 +14°C° 0 mm 3 mps 741 mmHg 79%
    23:00 +15°C° 0 mm 2 mps 741 mmHg 82%

    Tomorrow, 20 July, Saturday

    Time Temperature Precipitation Wind Pressure Humidity
    00:00 +14°C° 0 mm 2 mps 741 mmHg 83%
    01:00 +14°C° 0 mm 2 mps 742 mmHg 85%
    02:00 +13°C° 0 mm 3 mps 742 mmHg 86%
    03:00 +14°C° 0 mm 2 mps 742 mmHg 87%
    04:00 +14°C° 0 mm 2 mps 742 mmHg 88%
    05:00 +14°C° 0 mm 2 mps 742 mmHg 90%
    06:00 +15°C° 0 mm 2 mps 743 mmHg 85%
    07:00 +17°C° 0 mm 2 mps 743 mmHg 80%
    08:00 +19°C° 0 mm 2 mps 743 mmHg 75%
    09:00 +20°C° 0 mm 3 mps 743 mmHg 70%
    10:00 +21°C° 0 mm 3 mps 743 mmHg 66%
    11:00 +22°C° 0 mm 3 mps 744 mmHg 62%
    12:00 +24°C° 0 mm 3 mps 743 mmHg 59%
    13:00 +25°C° 0 mm 3 mps 743 mmHg 56%
    14:00 +25°C° 0 mm 3 mps 743 mmHg 53%
    15:00 +25°C° 0.2 mm 3 mps 743 mmHg 56%
    16:00 +25°C° 0.2 mm 3 mps 743 mmHg 59%
    17:00 +24°C° 0.2 mm 3 mps 744 mmHg 63%
    18:00 +23°C° 0.2 mm 2 mps 744 mmHg 69%
    19:00 +20°C° 0.2 mm 2 mps 744 mmHg 75%
    20:00 +20°C° 0.2 mm 1 mps 744 mmHg 81%
    21:00 +19°C° 0 mm 1 mps 744 mmHg 82%
    22:00 +18°C° 0 mm 1 mps 744 mmHg 84%
    23:00 +16°C° 0 mm 1 mps 744 mmHg 85%

    Day after tomorrow, 21 July, Sunday

    Time Temperature Precipitation Wind Pressure Humidity
    00:00 +16°C° 0 mm 1 mps 744 mmHg 86%
    01:00 +16°C° 0 mm 1 mps 744 mmHg 86%
    02:00 +14°C° 0 mm 0 mps 744 mmHg 87%
    03:00 +15°C° 0 mm 1 mps 744 mmHg 87%
    04:00 +15°C° 0 mm 1 mps 744 mmHg 87%
    05:00 +15°C° 0 mm 1 mps 744 mmHg 87%
    06:00 +18°C° 0 mm 1 mps 744 mmHg 84%
    07:00 +20°C° 0 mm 1 mps 744 mmHg 81%
    08:00 +21°C° 0 mm 1 mps 744 mmHg 77%
    09:00 +21°C° 0.5 mm 2 mps 744 mmHg 73%
    10:00 +24°C° 0.5 mm 2 mps 744 mmHg 69%
    11:00 +25°C° 0.5 mm 2 mps 744 mmHg 65%
    12:00 +25°C° 0.4 mm 2 mps 744 mmHg 64%
    13:00 +26°C° 0.4 mm 2 mps 744 mmHg 62%
    14:00 +26°C° 0.4 mm 2 mps 744 mmHg 60%
    15:00 +26°C° 0.1 mm 2 mps 744 mmHg 62%
    16:00 +26°C° 0.1 mm 2 mps 743 mmHg 63%
    17:00 +26°C° 0.1 mm 2 mps 743 mmHg 65%
    18:00 +24°C° 0.1 mm 2 mps 743 mmHg 70%
    19:00 +23°C° 0.1 mm 2 mps 743 mmHg 76%
    20:00 +20°C° 0.1 mm 2 mps 742 mmHg 81%
    21:00 +20°C° 0.1 mm 2 mps 742 mmHg 82%
    22:00 +19°C° 0.1 mm 2 mps 742 mmHg 84%
    23:00 +19°C° 0.1 mm 2 mps 742 mmHg 85%

    22 July, Monday

    Time Temperature Precipitation Wind Pressure Humidity
    00:00 +19°C° 0.9 mm 2 mps 742 mmHg 88%
    01:00 +18°C° 0.9 mm 2 mps 741 mmHg 90%
    02:00 +18°C° 0.9 mm 2 mps 741 mmHg 93%
    03:00 +18°C° 0.4 mm 2 mps 741 mmHg 94%
    04:00 +18°C° 0.4 mm 2 mps 741 mmHg 95%
    05:00 +18°C° 0.4 mm 2 mps 740 mmHg 95%
    06:00 +18°C° 0.5 mm 2 mps 740 mmHg 93%
    07:00 +19°C° 0.5 mm 3 mps 740 mmHg 91%
    08:00 +20°C° 0.5 mm 3 mps 740 mmHg 89%
    09:00 +20°C° 1.7 mm 3 mps 740 mmHg 88%
    10:00 +20°C° 1.7 mm 3 mps 740 mmHg 87%
    11:00 +21°C° 1.7 mm 3 mps 741 mmHg 86%
    12:00 +21°C° 1.8 mm 4 mps 741 mmHg 85%
    13:00 +21°C° 1.8 mm 4 mps 740 mmHg 84%
    14:00 +22°C° 1.8 mm 4 mps 740 mmHg 83%
    15:00 +21°C° 0.9 mm 5 mps 740 mmHg 84%
    16:00 +21°C° 0.9 mm 5 mps 740 mmHg 85%
    17:00 +20°C° 0.9 mm 5 mps 740 mmHg 86%
    18:00 +20°C° 0.1 mm 5 mps 740 mmHg 88%
    19:00 +19°C° 0.1 mm 4 mps 740 mmHg 89%
    20:00 +18°C° 0.1 mm 4 mps 740 mmHg 91%
    21:00 +18°C° 0.1 mm 4 mps 740 mmHg 92%
    22:00 +17°C° 0.1 mm 4 mps 740 mmHg 93%
    23:00 +17°C° 0.1 mm 4 mps 740 mmHg 95%

    23 July, Tuesday

    Time Temperature Precipitation Wind Pressure Humidity
    00:00 +17°C° 1.1 mm 4 mps 740 mmHg 95%
    01:00 +15°C° 1.1 mm 4 mps 740 mmHg 96%
    02:00 +16°C° 1.1 mm 3 mps 740 mmHg 96%
    03:00 +15°C° 1 mm 4 mps 740 mmHg 96%
    04:00 +15°C° 1 mm 4 mps 740 mmHg 96%
    05:00 +15°C° 1 mm 5 mps 741 mmHg 96%
    06:00 +15°C° 0.2 mm 5 mps 741 mmHg 94%
    07:00 +15°C° 0.2 mm 5 mps 741 mmHg 93%
    08:00 +15°C° 0.2 mm 5 mps 741 mmHg 92%
    09:00 +17°C° 0 mm 5 mps 741 mmHg 86%
    10:00 +19°C° 0 mm 5 mps 742 mmHg 79%
    11:00 +21°C° 0 mm 6 mps 742 mmHg 73%
    12:00 +22°C° 0 mm 6 mps 742 mmHg 68%
    13:00 +23°C° 0 mm 6 mps 742 mmHg 64%
    14:00 +24°C° 0 mm 6 mps 742 mmHg 60%
    15:00 +23°C° 0.1 mm 6 mps 742 mmHg 63%
    16:00 +23°C° 0.1 mm 6 mps 742 mmHg 65%
    17:00 +23°C° 0.1 mm 5 mps 742 mmHg 67%
    18:00 +21°C° 0 mm 5 mps 742 mmHg 71%
    19:00 +20°C° 0 mm 4 mps 742 mmHg 75%
    20:00 +18°C° 0 mm 4 mps 743 mmHg 79%
    21:00 +18°C° 0 mm 4 mps 743 mmHg 79%
    22:00 +17°C° 0 mm 4 mps 743 mmHg 78%
    23:00 +15°C° 0 mm 4 mps 743 mmHg 78%

    24 July, Wednesday

    Time Temperature Precipitation Wind Pressure Humidity
    00:00 +15°C° 0 mm 4 mps 743 mmHg 80%
    01:00 +14°C° 0 mm 4 mps 743 mmHg 83%
    02:00 +13°C° 0 mm 3 mps 743 mmHg 86%
    03:00 +13°C° 0 mm 4 mps 743 mmHg 86%
    04:00 +13°C° 0 mm 4 mps 743 mmHg 86%
    05:00 +12°C° 0 mm 4 mps 743 mmHg 86%
    06:00 +14°C° 0 mm 4 mps 743 mmHg 82%
    07:00 +15°C° 0 mm 5 mps 744 mmHg 78%
    08:00 +17°C° 0 mm 5 mps 744 mmHg 74%
    09:00 +19°C° 0 mm 6 mps 744 mmHg 68%
    10:00 +20°C° 0 mm 6 mps 744 mmHg 63%
    11:00 +21°C° 0 mm 6 mps 744 mmHg 58%
    12:00 +22°C° 0 mm 7 mps 744 mmHg 57%
    13:00 +22°C° 0 mm 7 mps 744 mmHg 57%
    14:00 +22°C° 0 mm 7 mps 744 mmHg 57%
    15:00 +22°C° 0 mm 6 mps 744 mmHg 59%
    16:00 +22°C° 0 mm 6 mps 744 mmHg 62%
    17:00 +22°C° 0 mm 5 mps 744 mmHg 64%
    18:00 +21°C° 0 mm 5 mps 744 mmHg 67%
    19:00 +19°C° 0 mm 4 mps 744 mmHg 71%
    20:00 +18°C° 0 mm 4 mps 744 mmHg 74%
    21:00 +18°C° 0 mm 4 mps 744 mmHg 76%
    22:00 +17°C° 0 mm 4 mps 744 mmHg 77%
    23:00 +17°C° 0 mm 4 mps 744 mmHg 78%
    Show more